Simultaneous Nadir Overpasses (SNOs) Predictions

Prediction of SNOs between GOES-15 and METOP-C Satellite Orbit:

Table of predicted SNOs for the next 14.0 days since TLE Epoch: 7/24/2020
Index Date Time (GOES-15) GOES-15 Lat,Lon METOP-C Lat,Lon Distance(km) Time Diff (sec)
1 07/25/2020 05:47:21 0.00,-128.39 0.86,-124.43 451.40 80
2 07/26/2020 18:06:13 -0.00,-128.39 0.12,-129.00 68.49 80
3 07/29/2020 06:07:13 0.01,-128.41 -0.01,-128.60 21.54 80
4 07/31/2020 18:05:25 -0.01,-128.39 -0.09,-128.16 26.19 80
5 08/02/2020 06:24:24 0.01,-128.40 -0.93,-132.76 496.32 80
6 08/03/2020 06:01:04 0.01,-128.39 0.14,-127.75 72.21 80
7 08/04/2020 18:19:55 -0.01,-128.36 0.88,-132.31 450.29 80
8 08/05/2020 18:01:56 -0.01,-128.36 -0.25,-127.32 118.68 80
9 08/07/2020 06:20:55 0.01,-128.37 -0.78,-131.91 403.39 80
